Flag for Venezuela Weather past 2 weeks in San Cristóbal, Venezuela

Now
75 °F

Scattered clouds.


Feels Like: 77 °F
Forecast: 62 / 88 °F
Wind: N/A

Location: San Antonio Del Tachira Airport

Current Time: Oct 22, 2014 at 7:47:01 AM

Latest Report: Oct 22, 2014 at 7:30 AM


Visibility: N/A

Pressure: 29.95 "Hg

Humidity: 74%

Dew point: 66 °F

Location of San CristóbalLocation

Historic Weather in San Cristóbal — Graph

°F

San Cristóbal temperature yesterday

Maximum temperature yesterday: 93 °F (at 1:30 PM)
Minimum temperature yesterday: 72 °F (at 4:30 AM)
Average temperature yesterday: 81 °F

Past Weeks' High & Low Weather Summary

 TemperatureHumidityPressure
High97 °F (Oct 16, 2:30 PM)100% (Oct 9, 1:30 AM)30.04 "Hg (Oct 9, 1:30 AM)
Low72 °F (Oct 9, 1:30 AM)30% (Oct 21, 1:30 PM)29.74 "Hg (Oct 8, 3:30 PM)
Average83 °F61%29.92 "Hg
* Reported Oct 7 6:30 AM — Oct 22 6:30 AM, San Cristóbal, Weather by CustomWeather, © 2014

Note: Actual official high and low records may vary slightly from our data, if they occured in-between our weather recording intervals... More about our weather records

Advertising

San Cristóbal weather history for previous 24 hours

 ConditionsComfort  
Time TempWeatherWind HumidityBarometerVisibility
6:30 AM
Oct 22
77 °FScattered clouds.N/A74%29.95 "HgN/A
5:30 AM77 °FPassing clouds.N/A74%29.92 "HgN/A
4:30 AM79 °FPassing clouds.N/A61%29.92 "HgN/A
1:30 AM79 °FPassing clouds.N/A79%29.95 "HgN/A
10:30 PM
Oct 21
79 °FPassing clouds.N/A84%29.95 "HgN/A
9:30 PM79 °FPassing clouds.N/A79%29.95 "HgN/A
8:30 PM79 °FPassing clouds.N/A74%29.95 "HgN/A
7:30 PM81 °FPassing clouds.N/A70%29.92 "HgN/A
6:30 PM82 °FPassing clouds.N/A58%29.92 "HgN/A
5:30 PM84 °FScattered clouds.N/A58%29.89 "HgN/A
4:30 PM91 °FScattered clouds.N/A30%29.89 "HgN/A
3:30 PM91 °FScattered clouds.N/A34%29.89 "HgN/A
2:30 PM91 °FPartly sunny.N/A34%29.89 "HgN/A
1:30 PM93 °FScattered clouds.N/A30%29.92 "HgN/A
12:30 PM88 °FScattered clouds.N/A35%29.92 "HgN/A
11:30 AM88 °FScattered clouds.N/A35%29.95 "HgN/A
10:30 AM81 °FPartly sunny.N/A62%29.98 "HgN/A
9:30 AM77 °FScattered clouds.N/A79%29.83 "HgN/A
8:30 AM73 °FScattered clouds.N/A94%29.98 "HgN/A
7:30 AM73 °FPartly sunny.N/A100%29.95 "HgN/A
Weather by CustomWeather, © 2014

See weather overviewHow to use our weather pages